Time,TemperatureF,DewpointF,PressureIn,WindDirection,WindDirectionDegrees,WindSpeedMPH,WindSpeedGustMPH,Humidity,HourlyPrecipIn,Conditions,Clouds,dailyrainin,SoftwareType,DateUTC
2013-01-13 06:02:00,45.3,42.8,30.00,SSE,164,0.0,0.0,91,0.00,,---,0.00,VWS V14.01,2013-01-13 11:02:00,
2013-01-13 06:03:00,45.3,42.8,30.00,SSE,164,0.0,0.0,91,0.00,,---,0.00,VWS V14.01,2013-01-13 11:03:00,
2013-01-13 06:04:00,45.3,42.8,30.00,SSE,164,0.0,0.0,91,0.00,,---,0.00,VWS V14.01,2013-01-13 11:04:00,
2013-01-13 06:09:00,45.3,42.8,30.00,SSE,164,3.6,4.3,91,0.00,,---,0.00,VWS V14.01,2013-01-13 11:09:00,
2013-01-13 06:14:00,45.3,42.8,30.00,SE,139,3.6,3.6,91,0.00,,---,0.00,VWS V14.01,2013-01-13 11:14:00,
2013-01-13 06:19:00,45.3,42.8,30.00,SSE,167,0.0,3.6,91,0.00,,---,0.00,VWS V14.01,2013-01-13 11:19:00,
2013-01-13 06:24:00,45.1,42.7,30.00,SSE,167,0.0,5.0,91,0.00,,---,0.00,VWS V14.01,2013-01-13 11:24:00,
2013-01-13 06:29:00,45.1,42.7,30.00,SSE,168,0.0,3.6,91,0.00,,---,0.00,VWS V14.01,2013-01-13 11:29:00,
2013-01-13 06:34:00,45.1,42.7,30.00,South,171,0.0,0.0,91,0.00,,---,0.00,VWS V14.01,2013-01-13 11:34:00,
2013-01-13 06:39:00,45.1,42.7,30.00,SSE,156,0.0,0.0,91,0.00,,---,0.00,VWS V14.01,2013-01-13 11:39:00,
2013-01-13 06:44:00,45.1,42.7,30.00,SE,129,0.0,0.0,91,0.00,,---,0.00,VWS V14.01,2013-01-13 11:44:00,
2013-01-13 06:49:00,45.1,42.7,30.00,South,169,0.0,0.0,91,0.00,,---,0.00,VWS V14.01,2013-01-13 11:49:00,
2013-01-13 06:54:00,45.1,42.7,30.00,SSE,161,0.0,0.0,91,0.00,,---,0.00,VWS V14.01,2013-01-13 11:54:00,
2013-01-13 06:59:00,45.1,42.7,30.00,SSE,161,6.4,6.4,91,0.00,,---,0.00,VWS V14.01,2013-01-13 11:59:00,
2013-01-13 07:04:00,45.1,42.7,30.00,SSE,161,0.0,6.4,91,0.00,,---,0.00,VWS V14.01,2013-01-13 12:04:00,
2013-01-13 07:09:00,45.1,42.7,30.00,SSE,161,0.0,0.0,91,0.00,,---,0.00,VWS V14.01,2013-01-13 12:09:00,
2013-01-13 07:14:00,45.1,42.7,30.00,SE,138,5.7,5.7,91,0.00,,---,0.00,VWS V14.01,2013-01-13 12:14:00,
2013-01-13 07:19:00,45.1,42.7,30.00,ESE,114,0.0,0.0,91,0.00,,---,0.00,VWS V14.01,2013-01-13 12:19:00,
2013-01-13 07:24:00,45.1,42.7,30.00,ESE,114,4.3,4.3,91,0.00,,---,0.00,VWS V14.01,2013-01-13 12:24:00,
2013-01-13 07:29:00,45.1,42.7,30.00,ESE,114,0.0,0.0,91,0.00,,---,0.00,VWS V14.01,2013-01-13 12:29:00,
2013-01-13 07:34:00,45.1,42.7,30.00,SE,130,0.0,0.0,91,0.00,,---,0.00,VWS V14.01,2013-01-13 12:34:00,
2013-01-13 07:39:00,45.1,42.7,30.00,SE,130,0.0,0.0,91,0.00,,---,0.00,VWS V14.01,2013-01-13 12:39:00,
2013-01-13 07:44:00,45.1,42.7,30.00,SE,130,0.0,0.0,91,0.00,,---,0.00,VWS V14.01,2013-01-13 12:44:00,
2013-01-13 07:49:00,45.1,42.7,30.00,SE,130,0.0,5.7,91,0.00,,---,0.00,VWS V14.01,2013-01-13 12:49:00,
2013-01-13 07:54:00,45.1,42.7,30.00,SE,130,0.0,0.0,91,0.00,,---,0.00,VWS V14.01,2013-01-13 12:54:00,
2013-01-13 07:59:00,45.1,42.7,30.00,SE,130,0.0,0.0,91,0.00,,---,0.00,VWS V14.01,2013-01-13 12:59:00,
2013-01-13 08:04:00,45.1,42.7,30.00,SE,130,0.0,0.0,91,0.00,,---,0.00,VWS V14.01,2013-01-13 13:04:00,
2013-01-13 08:09:00,45.1,42.7,30.00,SE,130,0.0,0.0,91,0.00,,---,0.00,VWS V14.01,2013-01-13 13:09:00,
2013-01-13 08:14:00,45.1,42.7,30.00,SE,130,0.0,0.0,91,0.00,,---,0.00,VWS V14.01,2013-01-13 13:14:00,
2013-01-13 08:19:00,45.1,42.7,30.00,SE,130,0.0,0.0,91,0.00,,---,0.00,VWS V14.01,2013-01-13 13:19:00,
2013-01-13 08:24:00,45.1,42.7,30.00,ESE,115,4.3,4.3,91,0.00,,---,0.00,VWS V14.01,2013-01-13 13:24:00,
2013-01-13 08:29:00,45.1,42.7,30.00,ESE,115,5.7,5.7,91,0.00,,---,0.00,VWS V14.01,2013-01-13 13:29:00,
2013-01-13 08:34:00,45.1,42.7,30.00,ESE,113,0.0,0.0,91,0.00,,---,0.00,VWS V14.01,2013-01-13 13:34:00,
2013-01-13 08:39:00,45.1,42.7,30.00,ESE,113,0.0,0.0,91,0.00,,---,0.00,VWS V14.01,2013-01-13 13:39:00,
2013-01-13 08:44:00,45.1,42.7,30.00,ESE,113,4.3,4.3,91,0.00,,---,0.00,VWS V14.01,2013-01-13 13:44:00,
2013-01-13 17:02:00,48.2,43.3,29.94,ESE,104,0.0,0.0,83,0.00,,---,0.00,VWS V14.01,2013-01-13 22:02:00,
2013-01-13 17:07:00,48.2,43.3,29.94,ESE,104,0.0,0.0,83,0.00,,---,0.00,VWS V14.01,2013-01-13 22:07:00,
2013-01-13 17:12:00,48.2,43.3,29.94,ESE,104,0.0,0.0,83,0.00,,---,0.00,VWS V14.01,2013-01-13 22:12:00,
2013-01-13 17:17:00,48.2,43.3,29.94,ESE,104,0.0,0.0,83,0.00,,---,0.00,VWS V14.01,2013-01-13 22:17:00,
2013-01-13 17:22:00,48.2,43.3,29.94,ESE,104,0.0,0.0,83,0.00,,---,0.00,VWS V14.01,2013-01-13 22:22:00,
2013-01-13 17:27:00,48.2,43.3,29.94,ESE,104,0.0,0.0,83,0.00,,---,0.00,VWS V14.01,2013-01-13 22:27:00,
2013-01-13 17:32:00,48.2,43.3,29.94,ESE,104,0.0,0.0,83,0.00,,---,0.00,VWS V14.01,2013-01-13 22:32:00,
2013-01-13 17:37:00,48.2,43.3,29.94,ESE,104,0.0,0.0,83,0.00,,---,0.00,VWS V14.01,2013-01-13 22:37:00,
2013-01-13 17:42:00,48.2,43.3,29.94,ESE,104,0.0,0.0,83,0.00,,---,0.00,VWS V14.01,2013-01-13 22:42:00,
2013-01-13 17:47:00,48.2,43.3,29.94,ESE,104,0.0,0.0,83,0.00,,---,0.00,VWS V14.01,2013-01-13 22:47:00,
2013-01-13 17:52:00,48.2,43.3,29.94,ESE,104,0.0,0.0,83,0.00,,---,0.00,VWS V14.01,2013-01-13 22:52:00,
2013-01-13 17:57:00,48.4,43.5,29.94,ESE,104,0.0,0.0,83,0.00,,---,0.00,VWS V14.01,2013-01-13 22:57:00,
2013-01-13 18:02:00,48.4,43.5,29.91,ESE,104,0.0,0.0,83,0.00,,---,0.00,VWS V14.01,2013-01-13 23:02:00,
2013-01-13 18:07:00,48.4,43.5,29.91,ESE,104,0.0,0.0,83,0.00,,---,0.00,VWS V14.01,2013-01-13 23:07:00,
2013-01-13 18:12:00,48.4,43.5,29.91,ESE,104,0.0,0.0,83,0.00,,---,0.00,VWS V14.01,2013-01-13 23:12:00,
2013-01-13 18:17:00,48.4,43.5,29.91,ESE,104,0.0,0.0,83,0.00,,---,0.00,VWS V14.01,2013-01-13 23:17:00,
2013-01-13 18:22:00,48.4,43.5,29.91,ESE,104,0.0,0.0,83,0.00,,---,0.00,VWS V14.01,2013-01-13 23:22:00,
2013-01-13 18:27:00,48.4,43.5,29.91,ESE,104,0.0,0.0,83,0.00,,---,0.00,VWS V14.01,2013-01-13 23:27:00,
2013-01-13 18:32:00,48.4,43.5,29.88,ESE,104,0.0,0.0,83,0.00,,---,0.00,VWS V14.01,2013-01-13 23:32:00,
2013-01-13 18:37:00,48.6,43.6,29.88,ESE,104,0.0,0.0,83,0.00,,---,0.00,VWS V14.01,2013-01-13 23:37:00,
2013-01-13 18:42:00,48.6,43.6,29.88,ESE,104,0.0,0.0,83,0.00,,---,0.00,VWS V14.01,2013-01-13 23:42:00,
2013-01-13 18:47:00,48.6,43.6,29.88,ESE,104,0.0,0.0,83,0.00,,---,0.00,VWS V14.01,2013-01-13 23:47:00,
2013-01-13 18:52:00,48.6,43.6,29.88,ESE,104,0.0,0.0,83,0.00,,---,0.00,VWS V14.01,2013-01-13 23:52:00,
2013-01-13 18:57:00,48.6,43.6,29.88,ESE,104,0.0,0.0,83,0.00,,---,0.00,VWS V14.01,2013-01-13 23:57:00,
2013-01-13 19:02:00,48.6,43.6,29.88,ESE,104,0.0,0.0,83,0.00,,---,0.00,VWS V14.01,2013-01-14 00:02:00,
2013-01-13 19:08:00,48.6,43.6,29.88,ESE,104,0.0,0.0,83,0.00,,---,0.00,VWS V14.01,2013-01-14 00:08:00,
2013-01-13 19:14:00,48.6,43.6,29.88,ESE,104,0.0,0.0,83,0.00,,---,0.00,VWS V14.01,2013-01-14 00:14:00,
2013-01-13 19:19:00,48.6,43.6,29.88,ESE,104,0.0,0.0,83,0.00,,---,0.00,VWS V14.01,2013-01-14 00:19:00,
2013-01-13 19:24:00,48.6,43.6,29.88,ESE,104,0.0,0.0,83,0.00,,---,0.00,VWS V14.01,2013-01-14 00:24:00,